Regional Weather Roundup
Issued by NWS

Home | Current Version | Previous Version | Text Only | Print | Product List | Glossary On
Versions: 1 2 3 4 5 6 7 8 9 10 11 12 13 14 15 16 17 18 19 20 21 22 23 24 25 26 27 28 29 30 31 32 33 34 35 36 37 38 39 40 41 42 43 44 45 46 47 48 49 50
000
ASUS43 KMKX 270820
RWRWI

WISCONSIN REGIONAL WEATHER ROUNDUP
NATIONAL WEATHER SERVICE MILWAUKEE/SULLIVAN WI
200 AM CST FRI FEB 27 2015

NOTE: "FAIR" INDICATES FEW OR NO CLOUDS BELOW 12,000 FEET WITH NO
SIGNIFICANT WEATHER AND/OR OBSTRUCTIONS TO VISIBILITY.

WIZ001-002-006>008-014>016-023>028-270900-
NORTHWEST WISCONSIN

CITY           SKY/WX    TMP DP  RH WIND       PRES   REMARKS
SUPERIOR ARPT  CLEAR     -5 -13  67 SW7       30.47R WCI -19
ASHLAND        CLEAR     -6 -14  68 SW6       30.42R WCI -19
HAYWARD        CLEAR    -16 -23  70 SW3       30.40R
SIREN          CLEAR    -10 -17  70 CALM      30.46S
CUMBERLAND     CLEAR     -8 -17  65 W6        30.41S WCI -21
RICE LAKE      CLEAR     -8 -15  74 W5        30.44S WCI -20
CHETEK         CLEAR     -9 -13  80 MISG      30.44R
LADYSMITH      CLEAR    -10 -15  78 W3        30.41S
EAU CLAIRE     CLEAR     -4 -12  68 CALM      30.46R
MENOMONIE      CLEAR     -2 -11  67 W3        30.47R
NEW RICHMOND   CLEAR     -6 -13  74 W7        30.47R WCI -21
OSCEOLA        CLEAR     -5 -12  75 CALM      30.51S
$$

WIZ003>005-009-010-017-018-270900-
NORTH CENTRAL WISCONSIN

CITY           SKY/WX    TMP DP  RH WIND       PRES   REMARKS
MANITOWISH WTR CLEAR    -19 -25  74 CALM      30.30S
ARBOR VITAE    CLEAR    -13 -20  73 CALM      30.31R
WOODRUFF       CLEAR    -13 -20  73 CALM      30.31R
RHINELANDER    CLEAR    -12 -18  74 W6        30.31S WCI -26
EAGLE RIVER    CLEAR    -18 -24  71 CALM      30.29S
LAND O LAKES   CLEAR    -26 -32  71 CALM      30.29S
PHILLIPS       CLEAR    -16 -22  77 CALM      30.34S
TOMAHAWK       CLEAR    -19 -25  76 CALM      30.35R
MEDFORD        CLEAR     -7 -13  74 W5        30.36R WCI -18
MERRILL        CLEAR    -15 -21  75 CALM      30.36S
$$

WIZ029-030-035-036-043>047-270900-
CENTRAL WISCONSIN

CITY           SKY/WX    TMP DP  RH WIND       PRES   REMARKS
WAUSAU         CLEAR     -5 -13  68 NW5       30.38R WCI -16
MOSINEE        CLEAR     -4 -13  65 W6        30.39R WCI -16
MARSHFIELD     CLEAR     -5 -14  65 NW6       30.39S WCI -18
STEVENS POINT  CLEAR     -9 -15  77 CALM      30.42R
WAUPACA        CLEAR      1  -9  61 W3        30.44R
WAUTOMA        CLEAR     -4 -12  68 CALM      30.45R
WISC RAPIDS    CLEAR     -8 -14  74 CALM      30.44R
CAMP DOUGLAS   CLEAR     -4 -10  75 W5        30.45R WCI -15
$$

WIZ011>013-019>022-031-037>040-048>050-270900-
NORTHEAST WISCONSIN

CITY           SKY/WX    TMP DP  RH WIND       PRES   REMARKS
ANTIGO         CLEAR     -8 -14  74 W6        30.33S WCI -21
SHAWANO        CLEAR      0  -9  65 CALM      30.42S
OCONTO         CLEAR    -11 -15  81 CALM      30.42S
STURGEON BAY   CLEAR     -6 -13  71 CALM      30.41S
GREEN BAY      CLEAR      0  -8  69 W7        30.43R WCI -13
MANITOWOC      CLEAR      2  -7  66 NW6       30.42S WCI  -9
APPLETON       CLEAR      0  -9  65 W9        30.42R WCI -16
CLINTONVILLE   CLEAR     -2  -9  71 CALM      30.43R
OSHKOSH        CLEAR      0  -9  65 W6        30.42R WCI -12
$$

WIZ032>034-041-042-053>061-270900-
SOUTHWEST WISCONSIN

CITY           SKY/WX    TMP DP  RH WIND       PRES   REMARKS
LA CROSSE      CLEAR     -5 -11  75 CALM      30.51R
SPARTA         CLEAR    -15 -21  77 CALM      30.48S
VIROQUA        CLEAR     -5 -10  80 W5        30.43R WCI -16
BOSCOBEL       CLEAR    -10 -16  74 CALM      30.52R
PRAIRIE DU CHI CLEAR     -8 -13  75 W3        30.53R
PLATTEVILLE    CLEAR     -7 -12  77 W5        30.47R WCI -18
$$

WIZ056-057-062-063-064-067-068-270900-
SOUTH CENTRAL WISCONSIN

CITY           SKY/WX    TMP DP  RH WIND       PRES   REMARKS
REEDSBURG      CLEAR     -2  -9  72 CALM      30.46R
BARABOO/DELLS  CLEAR     -4 -12  68 CALM      30.44R
LONE ROCK      CLEAR     -7 -12  79 W6        30.49R WCI -20
MINERAL POINT  CLEAR     -4  -9  77 W5        30.44R WCI -15
MADISON        CLEAR     -1 -10  65 CALM      30.45R
MIDDLETON      CLEAR     -5 -12  70 NW3       30.45S
WATERTOWN      CLEAR     -3  -9  75 CALM      30.44R
MONROE         CLEAR      0  -6  78 NW8       30.43R WCI -15
JANESVILLE     CLEAR     -2  -8  78 CALM      30.46R
$$

WIZ051-052-058>065-066-070>072-270900-
SOUTHEAST WISCONSIN

CITY           SKY/WX    TMP DP  RH WIND       PRES   REMARKS
MILWAUKEE      CLEAR      4  -7  60 W7        30.44R WCI  -8
WAUKESHA       CLEAR      0  -8  71 W6        30.44R WCI -12
MILWAUKEE/TIMM CLEAR      1  -8  66 W3        30.45R
RACINE         CLEAR      1  -9  62 W7        30.46R WCI -12
BURLINGTON     CLEAR    -13 -18  79 CALM      30.44R
KENOSHA        CLEAR     -7 -12  79 W5        30.44R WCI -18
FOND DU LAC    CLEAR     -1 -10  65 CALM      30.43R
SHEBOYGAN      CLEAR      1  -8  66 W8        30.42R WCI -13
WEST BEND      CLEAR      3  -8  60 W5        30.42R WCI  -6
JUNEAU         CLEAR      0  -9  65 W3        30.44R
$$

LSZ147-162-270900-
LAKE SUPERIOR

STATION/POSITION TIME  TEMP    WIND        PRES    WAVE
                       AIR SEA DIR/SP/G            HT/PER
                 (UTC) (F)     (DEG/KT/KT) (MB)    (FT/S)
DEVILS ISLAND    0800    6     290/  9/ 11 1031.5R
PORT WING        0740    5     260/  9/ 11 1030.5S
SAXON HARBOR     0700   -9     190/  2/  5 1029.8S
$$

LMZ867-665-643>646-270900-
LAKE MICHIGAN

STATION/POSITION TIME  TEMP    WIND        PRES    WAVE
                       AIR SEA DIR/SP/G            HT/PER
                 (UTC) (F)     (DEG/KT/KT) (MB)    (FT/S)
NORTHPORT PIER   0726    0     260/  3/  6 1029.1S
SISTER BAY       0643   -3        CALM       N/A
KEWAUNEE LAKESHO 0700   -4     300/  3/  7 1028.7R
SHEBOYGAN LAKESH 0800    5     290/ 11/ 14 1032.1R
PORT WASHINGTON  0740    4     290/  6/ 10 1031.5R
MILWAUKEE LAKESH 0800    6     300/ 10/ 14   N/A
KENOSHA   LAKESH 0800    3     290/ 10/ 12 1030.8R
$$

TC  - TEMPERATURE IN CELSIUS
VSB - VISIBILITY IN STATUTE MILES
WCI - WIND CHILL INDEX
HX  - HEAT INDEX



USA.gov is the U.S. government's official web portal to all federal, state and local government web resources and services.